Lexington Weather

Lexington, Massachusetts, USA

36°F
1/28/2020 5:35am 
  • Lexington Conditions: Overcast
  • Temperature: 36.3°F / 2.4°CWarmer 0.3°F than last hour.
  • Dew Point: 29.8°FIncreased 0.3°Fsince last hour.
  • Relative Humidity: 77
  • Wind: Wind from NW NW 4 mph, 10-min avg: 2 mph, gust: 5 mph
  • Barometer: 29.64 inRising 0.02  inHg/hr Rising Slowly
  • Visibility: 10 miles
  • Rain Today: 0.00 in
  •   

Regional Weather Roundup
for Boston / Norton, MA

        
000
ASUS41 KBOX 271200
RWRBOX

REGIONAL WEATHER ROUNDUP
NATIONAL WEATHER SERVICE BOSTON/NORTON MA
700 AM EST MON JAN 27 2020

NOTE:  "FAIR" INDICATES FEW OR NO CLOUDS BELOW 12,000 FEET WITH NO 
SIGNIFICANT WEATHER AND/OR OBSTRUCTIONS TO VISIBILITY.

MAZALL-271300-
EASTERN MASSACHUSETTS
  
CITY           SKY/WX    TMP DP  RH WIND       PRES   REMARKS
BOSTON         MOCLDY    41  29  62 W13G23    29.61S                  
6HR MIN TEMP:  39; 6HR MAX TEMP:  41;                                

BEVERLY        CLOUDY    36  28  73 SW7       29.59S WCI  30          
LAWRENCE       CLOUDY    37  28  70 SW7       29.61R WCI  32          
BEDFORD        CLOUDY    37  27  67 SW6       29.60R                  
BLUE HILL        N/A     33  27  78 W9        29.59R WCI  25          
NORWOOD        CLOUDY    39  28  64 SW6       29.62R                  
MARSHFIELD     NOT AVBL                                               
PLYMOUTH       CLOUDY    34  29  82 SW5       29.63S WCI  30          
TAUNTON        CLOUDY    34  28  79 SW6       29.63S WCI  29          
NEW BEDFORD    FAIR      33  29  85 W6        29.64R WCI  28          
$$

MAZALL-271300-
CAPE COD AND THE ISLANDS
  
CITY           SKY/WX    TMP DP  RH WIND       PRES   REMARKS
FALMOUTH       MOCLDY    34  30  86 W8        29.64R WCI  27          
HYANNIS        NOT AVBL                                               
CHATHAM        MOCLDY    36  33  89 VRB6      29.65R WCI  31          
PROVINCETOWN   CLOUDY    38  32  79 W15       29.63S WCI  29          
NANTUCKET      FAIR      37  34  89 W9        29.66R WCI  30          
MARTHAS VNYRD  FAIR      38  32  79 W10       29.66R WCI  31          
$$
 
MAZALL-271300-
CENTRAL AND WESTERN MASSACHUSETTS
  
CITY           SKY/WX    TMP DP  RH WIND       PRES   REMARKS
WORCESTER      FAIR      32  26  78 W10       29.58S WCI  24          
6HR MIN TEMP:  32; 6HR MAX TEMP:  35;                                

FITCHBURG      CLOUDY    37  27  67 W7        29.60R WCI  32          
ORANGE         MOCLDY    36  27  69 VRB5      29.60S                  
SPRINGFIELD    MOCLDY    34  28  78 SE3       29.61S                  
WESTFIELD      CLOUDY    35  28  75 SW9       29.61F WCI  28          
NORTH ADAMS    NOT AVBL                                               
PITTSFIELD     CLOUDY    33  27  78 SW6       29.57S WCI  28          
$$
 
RIZALL-271300-
RHODE ISLAND
  
CITY           SKY/WX    TMP DP  RH WIND       PRES   REMARKS
PROVIDENCE     MOCLDY    35  28  75 W12       29.64R WCI  27          
6HR MIN TEMP:  32; 6HR MAX TEMP:  37;                                

NEWPORT        FAIR      36  28  73 VRB5      29.64R                  
BLOCK ISLAND   MOCLDY    37  30  75 W12G21    29.67S WCI  29          
SMITHFIELD     CLOUDY    32  28  85 SW5       29.62S WCI  27          
WESTERLY       MOCLDY    39  28  64 W6        29.66S                  
$$
 
CTZALL-271300-
CONNECTICUT
  
CITY           SKY/WX    TMP DP  RH WIND       PRES   REMARKS
BRADLEY INTL   MOCLDY    36  28  73 SW8       29.62F WCI  30          
6HR MIN TEMP:  36; 6HR MAX TEMP:  39;                                

HARTFORD       CLOUDY    35  28  75 SE3       29.65S                  
BRIDGEPORT     CLOUDY    38  30  73 W12       29.67F WCI  30          
DANBURY        CLOUDY    33  27  78 SW6       29.66F WCI  28          
GROTON         NOT AVBL                                               
NEW HAVEN      CLOUDY    38  30  73 SW9       29.66F WCI  31          
CHESTER        NOT AVBL                                               
MERIDEN        CLOUDY    35  27  72 S5        29.66S WCI  31          
WILLIMANTIC    MOCLDY    35  28  75 SW5       29.65S WCI  31          
OXFORD         MOCLDY    33  28  81 W5        29.64F WCI  29          
$$

MEZ002-015-021-024-NHZ003-005-008-011-012-014-VTZ005-008-271300-
NORTHERN NEW ENGLAND
  
CITY           SKY/WX    TMP DP  RH WIND       PRES   REMARKS
PORTLAND ME    CLOUDY    39  28  64 W10       29.54R                  
6HR MIN TEMP:  34; 6HR MAX TEMP:  39;                                

BANGOR ME      CLOUDY    33  30  88 CALM      29.49R                  
CONCORD NH     CLOUDY    36  27  69 CALM      29.56S                  
MANCHESTER NH  CLOUDY    37  29  72 SW5       29.56S                  
NASHUA NH      CLOUDY    35  31  85 CALM      29.59S                  
PORTSMOUTH NH  CLOUDY    35  28  74 W5        29.55S WCI  31          
JAFFREY NH     CLOUDY    33  27  78 S7        29.56S WCI  27          
KEENE NH       FAIR      30  27  88 S3        29.59R                  
BURLINGTON VT  CLOUDY    34  31  88 S7        29.55F WCI  28          
MT. WASHINGTON SNOW      14  14 100 W53         N/A  VSB 1/16WCI -12  
$$

NYZ052-076-271300-
EASTERN NEW YORK
  
CITY           SKY/WX    TMP DP  RH WIND       PRES   REMARKS
ALBANY         FLURRIES  35  28  75 SE3       29.62R                  
6HR MIN TEMP:  35; 6HR MAX TEMP:  39; 6HR PCP: TRACE;                

NEW YORK CITY  MOCLDY    38  27  64 W14       29.70S WCI  30          
6HR MIN TEMP:  38; 6HR MAX TEMP:  39;                                

$$
 
ANZALL-271300-
MARINE OBSERVATIONS
  
STATION/POSITION TIME  TEMP    WIND        PRES    VSBY  WAVE
                       AIR SEA DIR/SP/G                  HT/PER
                 (UTC) (F)     (DEG/KT/KT) (MB)    (MI)  (FT/S)
BOSTON BUOY      1050   38 43  230/ 14/ 17 1002.1          3/11
BUZZARDS BAY     1100   39     260/ 19/ 21 1004.2S
NANTUCKET SOUND  1100                      1004.1
MASS BAY-STELLWA 1104   39 41  270/ 17/ 19 1000.3S  1 7/8  5/11
ISLE OF SHOALS   1100   39     240/ 16/ 18 1001.0R
S OF BLOCK IS    1130      44                N/A           6/10
$$

......................KEY.........................
  SKY/WX - SKY CONDITION/PRESENT WEATHER
  TMP    - TEMPERATURE IN FAHRENHEIT
  DWPT   - DEWPOINT IN FAHRENHEIT
  RH     - RELATIVE HUMIDITY IN PERCENT
  WIND   - DIRECTION AND SPEED IN MPH
  PRES   - MEAN SEA LEVEL PRESSURE IN INCHES OF HG
  WCI    - WIND CHILL INDEX
  VSB    - VISIBILITY IN MILES
  HX     - HEAT INDEX
  TC     - TEMPERATURE IN CELSIUS
  VRB    - VARIABLE WIND DIRECTION
  N/A    - NOT AVAILABLE
  
      

Other recent Regional Weather Roundups

Tue Jan 28, 5:10am

Tue Jan 28, 5:00am

Tue Jan 28, 4:10am

Tue Jan 28, 4:00am

Tue Jan 28, 3:10am

Tue Jan 28, 3:01am

Tue Jan 28, 2:10am

Tue Jan 28, 2:00am

Tue Jan 28, 1:10am

Tue Jan 28, 1:00am

Tue Jan 28, 12:10am

Tue Jan 28, 12:01am

Mon Jan 27, 11:10pm

Mon Jan 27, 11:00pm

Mon Jan 27, 10:10pm

Mon Jan 27, 10:00pm

Mon Jan 27, 9:10pm

Mon Jan 27, 9:00pm

Mon Jan 27, 8:10pm

Mon Jan 27, 8:01pm

Mon Jan 27, 7:10pm

Mon Jan 27, 7:00pm

Mon Jan 27, 6:10pm

Mon Jan 27, 6:00pm

Mon Jan 27, 5:10pm

Mon Jan 27, 5:00pm

Mon Jan 27, 4:10pm

Mon Jan 27, 4:00pm

Mon Jan 27, 3:10pm

Mon Jan 27, 3:00pm

Mon Jan 27, 2:10pm

Mon Jan 27, 2:00pm

Mon Jan 27, 1:10pm

Mon Jan 27, 1:00pm

Mon Jan 27, 12:10pm

Mon Jan 27, 12:00pm

Mon Jan 27, 11:10am

Mon Jan 27, 11:01am

Mon Jan 27, 10:10am

Mon Jan 27, 10:00am

Mon Jan 27, 9:10am

Mon Jan 27, 9:00am

Mon Jan 27, 8:10am

Mon Jan 27, 8:00am

Mon Jan 27, 7:10am

Mon Jan 27, 6:10am

Mon Jan 27, 6:00am

Mon Jan 27, 5:10am

Mon Jan 27, 5:00am

Mon Jan 27, 4:10am

Mon Jan 27, 4:01am

Mon Jan 27, 3:10am

Mon Jan 27, 3:00am

Mon Jan 27, 2:10am

Mon Jan 27, 2:00am

Mon Jan 27, 1:10am

Mon Jan 27, 1:00am

Mon Jan 27, 12:10am

Mon Jan 27, 12:00am

Sun Jan 26, 11:10pm

Sun Jan 26, 11:00pm

Sun Jan 26, 10:10pm

Sun Jan 26, 10:00pm

Sun Jan 26, 9:10pm

Sun Jan 26, 9:01pm

Sun Jan 26, 8:10pm

Sun Jan 26, 8:00pm

Sun Jan 26, 7:10pm

Sun Jan 26, 7:00pm

Sun Jan 26, 6:10pm

Sun Jan 26, 6:01pm

Sun Jan 26, 5:10pm

Sun Jan 26, 5:01pm

Sun Jan 26, 4:10pm

Sun Jan 26, 4:00pm

Sun Jan 26, 3:10pm

Sun Jan 26, 3:01pm

Sun Jan 26, 2:10pm

Sun Jan 26, 2:01pm

Sun Jan 26, 1:10pm

Sun Jan 26, 1:00pm

Sun Jan 26, 12:10pm

Sun Jan 26, 12:00pm

Sun Jan 26, 11:10am

Sun Jan 26, 11:01am

Sun Jan 26, 10:10am

Sun Jan 26, 10:01am

Sun Jan 26, 9:10am

Sun Jan 26, 9:00am

Sun Jan 26, 8:10am

Sun Jan 26, 8:00am

Sun Jan 26, 7:10am

Sun Jan 26, 7:00am

Sun Jan 26, 6:10am

Sun Jan 26, 6:00am

Sun Jan 26, 5:10am

Sun Jan 26, 5:00am

Sun Jan 26, 4:10am

Sun Jan 26, 4:01am

Sun Jan 26, 3:10am

Sun Jan 26, 3:01am

Sun Jan 26, 2:10am

Sun Jan 26, 2:00am

Sun Jan 26, 1:10am

Sun Jan 26, 1:00am

Sun Jan 26, 12:10am

Sun Jan 26, 12:00am

Sat Jan 25, 11:10pm

Sat Jan 25, 11:00pm

Sat Jan 25, 10:10pm

Sat Jan 25, 10:01pm

Sat Jan 25, 9:10pm

Sat Jan 25, 9:01pm

Sat Jan 25, 8:10pm

Sat Jan 25, 8:01pm

Sat Jan 25, 7:10pm

Sat Jan 25, 7:01pm

Sat Jan 25, 6:10pm

Sat Jan 25, 6:01pm

Sat Jan 25, 5:10pm

Sat Jan 25, 5:01pm

Sat Jan 25, 4:10pm

Sat Jan 25, 4:00pm

Sat Jan 25, 3:10pm

Sat Jan 25, 3:01pm

Sat Jan 25, 2:10pm

Sat Jan 25, 2:00pm

Sat Jan 25, 1:10pm

Sat Jan 25, 1:00pm

Sat Jan 25, 12:10pm

Sat Jan 25, 12:00pm

Sat Jan 25, 11:10am

Sat Jan 25, 11:00am

Sat Jan 25, 10:10am

Sat Jan 25, 10:00am

Sat Jan 25, 9:10am

Sat Jan 25, 9:00am

Sat Jan 25, 8:10am

Sat Jan 25, 8:01am

Sat Jan 25, 7:10am

Sat Jan 25, 7:00am

Sat Jan 25, 6:10am

Sat Jan 25, 6:00am

Meta data:

ID: 42244104-792d-4c80-bd34-831c0257b542
Link: https://api.weather.gov/products/42244104-792d-4c80-bd34-831c0257b542